| time (UTC) | temp C | wind direction | speed KPH | gust KPH | rain 1hr cm | rain 24hr cm | rain mn cm | humidity % | barometer mb |
| 20260510130535 | 16 | 203 | 1.6 | 4.8 | 0.00 | 0.00 | 0.00 | 82 | 1018.6 |
| 20260510125517 | 16 | 0.0 | 3.2 | 0.00 | 0.00 | 0.00 | 85 | 1018.5 | |
| 20260510124517 | 15 | 0.0 | 3.2 | 0.00 | 0.00 | 0.00 | 90 | 1018.5 | |
| 20260510123520 | 13 | 0.0 | 3.2 | 0.00 | 0.00 | 0.00 | 95 | 1018.4 | |
| 20260510122517 | 13 | 0.0 | 3.2 | 0.00 | 0.00 | 0.00 | 95 | 1018.3 | |
| 20260510121517 | 11 | 0.0 | 0.0 | 0.00 | 0.00 | 0.00 | 95 | 1018.3 | |
| 20260510120517 | 11 | 0.0 | 0.0 | 0.00 | 0.00 | 0.00 | 95 | 1017.9 | |
| 20260510115517 | 10 | 0.0 | 0.0 | 0.00 | 0.00 | 0.00 | 95 | 1018.0 | |
| 20260510114537 | 9 | 0.0 | 1.6 | 0.00 | 0.00 | 0.00 | 95 | 1017.9 | |
| 20260510113517 | 8 | 0.0 | 3.2 | 0.00 | 0.00 | 0.00 | 94 | 1017.8 | |
| 20260510112517 | 8 | 0.0 | 3.2 | 0.00 | 0.00 | 0.00 | 95 | 1017.6 | |
| 20260510111517 | 8 | 0.0 | 3.2 | 0.00 | 0.00 | 0.00 | 94 | 1017.3 | |
| 20260510110517 | 8 | 0.0 | 3.2 | 0.00 | 0.00 | 0.00 | 94 | 1017.2 | |
| 20260510105537 | 8 | 0.0 | 0.0 | 0.00 | 0.00 | 0.00 | 94 | 1017.2 | |
| 20260510104517 | 8 | 0.0 | 3.2 | 0.00 | 0.00 | 0.00 | 94 | 1017.0 | |
| 20260510103517 | 8 | 0.0 | 1.6 | 0.00 | 0.00 | 0.00 | 94 | 1016.9 | |
| 20260510102517 | 8 | 0.0 | 0.0 | 0.00 | 0.00 | 0.00 | 94 | 1016.7 | |
| 20260510101517 | 8 | 0.0 | 3.2 | 0.00 | 0.00 | 0.00 | 94 | 1016.6 | |
| 20260510100537 | 8 | 0.0 | 3.2 | 0.00 | 0.00 | 0.00 | 93 | 1016.5 | |
| 20260510095517 | 8 | 0.0 | 3.2 | 0.00 | 0.00 | 0.00 | 94 | 1016.3 | |
| 20260510094517 | 8 | 0.0 | 0.0 | 0.00 | 0.00 | 0.00 | 94 | 1016.1 | |
| 20260510093516 | 8 | 0.0 | 3.2 | 0.00 | 0.00 | 0.00 | 93 | 1016.0 | |
| 20260510092517 | 8 | 0.0 | 0.0 | 0.00 | 0.00 | 0.00 | 93 | 1016.0 | |
| 20260510091517 | 8 | 0.0 | 3.2 | 0.00 | 0.00 | 0.00 | 94 | 1015.8 | |
| 20260510090517 | 8 | 0.0 | 1.6 | 0.00 | 0.00 | 0.00 | 93 | 1015.8 | |
| 20260510085516 | 8 | 0.0 | 1.6 | 0.00 | 0.00 | 0.00 | 93 | 1015.7 | |
| 20260510084517 | 8 | 0.0 | 3.2 | 0.00 | 0.00 | 0.00 | 93 | 1015.8 | |
| 20260510083517 | 8 | 0.0 | 1.6 | 0.00 | 0.00 | 0.00 | 92 | 1015.7 | |
| 20260510082516 | 9 | 0.0 | 1.6 | 0.00 | 0.00 | 0.00 | 94 | 1015.6 | |
| 20260510081557 | 8 | 0.0 | 3.2 | 0.00 | 0.00 | 0.00 | 93 | 1015.6 | |
| 20260510080517 | 8 | 0.0 | 0.0 | 0.00 | 0.00 | 0.00 | 92 | 1015.3 | |
| 20260510075516 | 9 | 0.0 | 0.0 | 0.00 | 0.00 | 0.00 | 93 | 1015.1 | |
| 20260510074517 | 9 | 0.0 | 0.0 | 0.00 | 0.00 | 0.00 | 93 | 1015.1 | |
| 20260510073536 | 9 | 0.0 | 0.0 | 0.00 | 0.00 | 0.00 | 92 | 1015.1 | |
| 20260510072516 | 9 | 0.0 | 0.0 | 0.00 | 0.00 | 0.00 | 93 | 1014.9 | |
| 20260510071556 | 9 | 0.0 | 0.0 | 0.00 | 0.00 | 0.00 | 93 | 1015.0 | |
| 20260510070516 | 9 | 0.0 | 0.0 | 0.00 | 0.00 | 0.00 | 92 | 1014.8 | |
| 20260510065516 | 9 | 0.0 | 0.0 | 0.00 | 0.00 | 0.00 | 92 | 1014.7 | |
| 20260510064516 | 10 | 0.0 | 0.0 | 0.00 | 0.00 | 0.00 | 92 | 1014.8 | |
| 20260510063516 | 10 | 0.0 | 0.0 | 0.00 | 0.00 | 0.00 | 91 | 1014.7 | |
| 20260510062516 | 10 | 0.0 | 3.2 | 0.00 | 0.00 | 0.00 | 92 | 1014.9 | |
| 20260510061536 | 10 | 0.0 | 0.0 | 0.00 | 0.00 | 0.00 | 92 | 1015.0 | |
| 20260510060517 | 10 | 0.0 | 1.6 | 0.00 | 0.00 | 0.00 | 91 | 1015.0 | |
| 20260510055516 | 10 | 0.0 | 0.0 | 0.00 | 0.00 | 0.00 | 91 | 1015.0 | |
| 20260510054536 | 10 | 0.0 | 3.2 | 0.00 | 0.00 | 0.00 | 91 | 1015.0 | |
| 20260510053516 | 10 | 0.0 | 0.0 | 0.00 | 0.00 | 0.00 | 90 | 1014.9 | |
| 20260510052516 | 10 | 0.0 | 0.0 | 0.00 | 0.00 | 0.00 | 90 | 1014.9 | |
| 20260510051516 | 11 | 0.0 | 0.0 | 0.00 | 0.00 | 0.00 | 89 | 1014.9 | |
| 20260510050516 | 11 | 0.0 | 0.0 | 0.00 | 0.00 | 0.00 | 89 | 1014.9 | |
| 20260510045516 | 11 | 0.0 | 0.0 | 0.00 | 0.00 | 0.00 | 89 | 1014.9 | |
| 20260510044516 | 11 | 0.0 | 3.2 | 0.00 | 0.00 | 0.00 | 87 | 1014.8 | |
| 20260510043516 | 11 | 0.0 | 0.0 | 0.00 | 0.00 | 0.00 | 86 | 1014.8 | |
| 20260510042536 | 12 | 0.0 | 0.0 | 0.00 | 0.00 | 0.00 | 87 | 1014.8 | |
| 20260510041526 | 12 | 0.0 | 0.0 | 0.00 | 0.00 | 0.00 | 87 | 1014.7 | |
| 20260510040516 | 12 | 0.0 | 3.2 | 0.00 | 0.00 | 0.00 | 87 | 1014.6 | |
| 20260510035517 | 12 | 0.0 | 3.2 | 0.00 | 0.00 | 0.00 | 84 | 1014.7 | |
| 20260510034537 | 12 | 0.0 | 3.2 | 0.00 | 0.00 | 0.00 | 84 | 1014.5 | |
| 20260510033517 | 12 | 0.0 | 0.0 | 0.00 | 0.00 | 0.00 | 84 | 1014.5 | |
| 20260510032537 | 12 | 0.0 | 0.0 | 0.00 | 0.00 | 0.00 | 84 | 1014.5 | |
| 20260510031517 | 12 | 0.0 | 0.0 | 0.00 | 0.00 | 0.00 | 83 | 1014.6 | |
| 20260510030537 | 13 | 0.0 | 0.0 | 0.00 | 0.00 | 0.00 | 82 | 1014.6 | |
| 20260510025517 | 13 | 0.0 | 3.2 | 0.00 | 0.00 | 0.00 | 82 | 1014.5 | |
| 20260510024518 | 13 | 0.0 | 3.2 | 0.00 | 0.00 | 0.00 | 81 | 1014.4 | |
| 20260510023517 | 13 | 0.0 | 3.2 | 0.00 | 0.00 | 0.00 | 80 | 1014.3 | |
| 20260510022517 | 14 | 0.0 | 1.6 | 0.00 | 0.00 | 0.00 | 81 | 1014.1 | |
| 20260510021517 | 14 | 0.0 | 0.0 | 0.00 | 0.00 | 0.00 | 79 | 1013.9 | |
| 20260510020517 | 15 | 0 | 1.6 | 1.6 | 0.00 | 0.00 | 0.00 | 78 | 1013.7 |
| 20260510015517 | 15 | 0.0 | 3.2 | 0.00 | 0.00 | 0.00 | 77 | 1013.6 | |
| 20260510014517 | 15 | 338 | 1.6 | 1.6 | 0.00 | 0.00 | 0.00 | 75 | 1013.5 |
| 20260510013517 | 16 | 0.0 | 3.2 | 0.00 | 0.00 | 0.00 | 74 | 1013.4 | |
| 20260510012517 | 16 | 0.0 | 3.2 | 0.00 | 0.00 | 0.00 | 73 | 1013.1 | |
| 20260510011517 | 16 | 0.0 | 0.0 | 0.00 | 0.00 | 0.00 | 72 | 1013.1 | |
| 20260510010517 | 17 | 0.0 | 3.2 | 0.00 | 0.00 | 0.00 | 70 | 1013.1 | |
| 20260510005517 | 17 | 0.0 | 3.2 | 0.00 | 0.00 | 0.00 | 68 | 1013.0 | |
| 20260510004517 | 18 | 0.0 | 3.2 | 0.00 | 0.00 | 0.00 | 66 | 1012.7 | |
| 20260510003517 | 18 | 0.0 | 1.6 | 0.00 | 0.00 | 0.00 | 66 | 1012.6 | |
| 20260510002517 | 19 | 293 | 1.6 | 1.6 | 0.00 | 0.00 | 0.00 | 65 | 1012.5 |
| 20260510001517 | 20 | 0.0 | 1.6 | 0.00 | 0.00 | 0.00 | 63 | 1012.2 | |
| 20260510000517 | 20 | 0.0 | 1.6 | 0.00 | 0.00 | 0.00 | 61 | 1012.1 | |
| 20260509235516 | 21 | 338 | 1.6 | 3.2 | 0.00 | 0.00 | 0.00 | 58 | 1012.0 |
| 20260509234537 | 21 | 338 | 3.2 | 8.0 | 0.00 | 0.00 | 0.00 | 55 | 1011.7 |
| 20260509233516 | 22 | 293 | 1.6 | 3.2 | 0.00 | 0.00 | 0.00 | 53 | 1011.8 |
| 20260509232516 | 22 | 315 | 3.2 | 8.0 | 0.00 | 0.00 | 0.00 | 50 | 1012.0 |
| 20260509231536 | 23 | 225 | 1.6 | 6.4 | 0.00 | 0.00 | 0.00 | 50 | 1012.1 |
| 20260509230517 | 23 | 338 | 1.6 | 4.8 | 0.00 | 0.00 | 0.00 | 51 | 1011.9 |
| 20260509225516 | 23 | 338 | 1.6 | 4.8 | 0.00 | 0.00 | 0.00 | 54 | 1011.8 |
| 20260509224516 | 23 | 315 | 3.2 | 9.7 | 0.00 | 0.00 | 0.00 | 51 | 1011.9 |
| 20260509223516 | 23 | 225 | 6.4 | 14.5 | 0.00 | 0.00 | 0.00 | 51 | 1012.1 |
| 20260509222516 | 23 | 0.0 | 3.2 | 0.00 | 0.00 | 0.00 | 54 | 1012.0 | |
| 20260509221516 | 22 | 0.0 | 3.2 | 0.00 | 0.00 | 0.00 | 55 | 1011.8 | |
| 20260509220516 | 22 | 293 | 1.6 | 4.8 | 0.00 | 0.00 | 0.00 | 56 | 1011.8 |
| 20260509215516 | 22 | 270 | 1.6 | 4.8 | 0.00 | 0.00 | 0.00 | 55 | 1011.7 |
| 20260509214516 | 23 | 225 | 3.2 | 6.4 | 0.00 | 0.00 | 0.00 | 52 | 1011.7 |
| 20260509213536 | 23 | 225 | 1.6 | 9.7 | 0.00 | 0.00 | 0.00 | 55 | 1011.7 |
| 20260509212601 | 23 | 225 | 4.8 | 11.3 | 0.00 | 0.00 | 0.00 | 53 | 1011.5 |
| 20260509211516 | 23 | 248 | 3.2 | 9.7 | 0.00 | 0.00 | 0.00 | 52 | 1011.5 |
| 20260509210556 | 23 | 293 | 3.2 | 11.3 | 0.00 | 0.00 | 0.00 | 54 | 1011.5 |
| 20260509205516 | 22 | 225 | 3.2 | 12.9 | 0.00 | 0.00 | 0.00 | 57 | 1011.7 |
| 20260509204516 | 22 | 270 | 3.2 | 12.9 | 0.00 | 0.00 | 0.00 | 55 | 1011.8 |
| 20260509203556 | 22 | 270 | 3.2 | 11.3 | 0.00 | 0.00 | 0.00 | 53 | 1011.9 |
| 20260509202516 | 23 | 315 | 3.2 | 8.0 | 0.00 | 0.00 | 0.00 | 53 | 1011.9 |
| 20260509201516 | 23 | 225 | 3.2 | 14.5 | 0.00 | 0.00 | 0.00 | 52 | 1012.1 |
| 20260509200516 | 22 | 293 | 3.2 | 11.3 | 0.00 | 0.00 | 0.00 | 52 | 1011.8 |
| 20260509195516 | 23 | 248 | 4.8 | 11.3 | 0.00 | 0.00 | 0.00 | 53 | 1011.9 |
| 20260509194516 | 22 | 225 | 1.6 | 4.8 | 0.00 | 0.00 | 0.00 | 55 | 1012.1 |
| 20260509193517 | 22 | 315 | 4.8 | 12.9 | 0.00 | 0.00 | 0.00 | 55 | 1011.8 |
| 20260509192516 | 23 | 203 | 4.8 | 11.3 | 0.00 | 0.00 | 0.00 | 53 | 1012.0 |
| 20260509191556 | 23 | 338 | 4.8 | 12.9 | 0.00 | 0.00 | 0.00 | 55 | 1012.1 |
| 20260509190516 | 22 | 203 | 4.8 | 17.7 | 0.00 | 0.00 | 0.00 | 55 | 1011.9 |
| 20260509185556 | 22 | 0 | 1.6 | 6.4 | 0.00 | 0.00 | 0.00 | 59 | 1011.9 |
| 20260509184536 | 22 | 225 | 4.8 | 14.5 | 0.00 | 0.00 | 0.00 | 55 | 1011.6 |
| 20260509183536 | 21 | 203 | 3.2 | 6.4 | 0.00 | 0.00 | 0.00 | 59 | 1011.5 |
| 20260509182516 | 21 | 225 | 3.2 | 11.3 | 0.00 | 0.00 | 0.00 | 59 | 1011.5 |
| 20260509181516 | 21 | 225 | 4.8 | 12.9 | 0.00 | 0.00 | 0.00 | 60 | 1011.6 |
| 20260509180516 | 21 | 225 | 3.2 | 8.0 | 0.00 | 0.00 | 0.00 | 59 | 1011.8 |
| 20260509175516 | 21 | 225 | 3.2 | 11.3 | 0.00 | 0.00 | 0.00 | 61 | 1011.9 |
| 20260509174536 | 21 | 293 | 4.8 | 12.9 | 0.00 | 0.00 | 0.00 | 59 | 1012.0 |
| 20260509173515 | 21 | 203 | 6.4 | 12.9 | 0.00 | 0.00 | 0.00 | 59 | 1012.0 |
| 20260509172516 | 21 | 203 | 6.4 | 11.3 | 0.00 | 0.00 | 0.00 | 64 | 1012.1 |
| 20260509171516 | 20 | 203 | 4.8 | 9.7 | 0.00 | 0.00 | 0.00 | 61 | 1012.2 |
| 20260509170515 | 20 | 225 | 8.0 | 19.3 | 0.00 | 0.00 | 0.00 | 62 | 1012.3 |
| 20260509165516 | 20 | 225 | 4.8 | 14.5 | 0.00 | 0.00 | 0.00 | 61 | 1012.5 |
| 20260509164516 | 20 | 203 | 4.8 | 11.3 | 0.00 | 0.00 | 0.00 | 65 | 1012.5 |
| 20260509163536 | 20 | 248 | 4.8 | 14.5 | 0.00 | 0.00 | 0.00 | 64 | 1012.4 |
| 20260509162536 | 19 | 225 | 8.0 | 14.5 | 0.00 | 0.00 | 0.00 | 65 | 1012.3 |
| 20260509161516 | 19 | 180 | 4.8 | 14.5 | 0.00 | 0.00 | 0.00 | 65 | 1012.5 |
| 20260509160515 | 18 | 203 | 4.8 | 12.9 | 0.00 | 0.00 | 0.00 | 67 | 1012.3 |
| 20260509155515 | 18 | 225 | 8.0 | 14.5 | 0.00 | 0.00 | 0.00 | 68 | 1012.4 |
| 20260509154515 | 17 | 203 | 6.4 | 16.1 | 0.00 | 0.00 | 0.00 | 70 | 1012.5 |
| 20260509153515 | 17 | 203 | 4.8 | 12.9 | 0.00 | 0.00 | 0.00 | 76 | 1012.6 |
| 20260509152515 | 16 | 225 | 4.8 | 12.9 | 0.00 | 0.00 | 0.00 | 76 | 1012.8 |
| 20260509151515 | 17 | 203 | 4.8 | 11.3 | 0.00 | 0.00 | 0.00 | 75 | 1012.6 |
| 20260509150535 | 17 | 225 | 6.4 | 17.7 | 0.00 | 0.00 | 0.00 | 73 | 1012.6 |
| 20260509145515 | 17 | 203 | 6.4 | 19.3 | 0.00 | 0.00 | 0.00 | 75 | 1012.5 |
| 20260509144517 | 16 | 225 | 8.0 | 17.7 | 0.00 | 0.00 | 0.00 | 76 | 1012.2 |
| 20260509143517 | 16 | 225 | 6.4 | 12.9 | 0.00 | 0.00 | 0.00 | 78 | 1012.2 |
| 20260509142558 | 16 | 203 | 6.4 | 16.1 | 0.00 | 0.00 | 0.00 | 76 | 1011.9 |
| 20260509141517 | 16 | 203 | 6.4 | 16.1 | 0.00 | 0.00 | 0.00 | 78 | 1011.8 |
| 20260509140535 | 15 | 203 | 4.8 | 12.9 | 0.00 | 0.00 | 0.00 | 79 | 1012.0 |
| 20260509135517 | 15 | 203 | 4.8 | 14.5 | 0.00 | 0.00 | 0.00 | 80 | 1012.2 |
| 20260509134522 | 14 | 248 | 3.2 | 11.3 | 0.00 | 0.00 | 0.00 | 80 | 1012.4 |
| 20260509133537 | 14 | 248 | 3.2 | 8.0 | 0.00 | 0.00 | 0.00 | 81 | 1012.2 |
| 20260509132517 | 14 | 225 | 3.2 | 11.3 | 0.00 | 0.00 | 0.00 | 80 | 1012.6 |
| 20260509131537 | 14 | 203 | 3.2 | 8.0 | 0.00 | 0.00 | 0.00 | 80 | 1012.4 |